EW6791 Weather Reports


Display with metric or nautical units.
time (UTC)temp
F
wind
direction
speed
MPH
gust
MPH
rain 1hr
in
rain 24hr
in
rain mn
in
humidity
%
barometer
mb
20260508130002 50 150 0.0 2.0 0.00 0.00 0.00 44 1010.1
20260508124500 51 188 0.0 0.0 0.00 0.00 0.00 45 1010.1
20260508123057 48 174 0.0 0.0 0.00 0.00 0.00 48 1010.2
20260508121554 47 155 0.0 0.0 0.00 0.00 0.00 48 1009.9
20260508120050 46 155 0.0 0.0 0.00 0.00 0.00 49 1009.7
20260508114548 45 155 0.0 0.0 0.00 0.00 0.00 50 1009.7
20260508113109 43 155 0.0 0.0 0.00 0.00 0.00 50 1009.7
20260508111542 43 155 0.0 0.0 0.00 0.00 0.00 50 1009.7
20260508110038 42 155 0.0 0.0 0.00 0.00 0.00 51 1009.6
20260508104550 37 156 0.0 2.0 0.00 0.00 0.00 57 1009.7
20260508103034 35 155 0.0 1.0 0.00 0.00 0.00 63 1009.5
20260508101540 34 165 0.0 2.0 0.00 0.00 0.00 63 1009.6
20260508100037 34 154 0.0 1.0 0.00 0.00 0.00 63 1009.6
20260508094529 35 150 0.0 1.0 0.00 0.00 0.00 62 1009.7
20260508093028 35 150 0.0 1.0 0.00 0.00 0.00 62 1009.7
20260508091528 35 150 0.0 1.0 0.00 0.00 0.00 61 1009.7
20260508090032 35 150 0.0 1.0 0.00 0.00 0.00 61 1009.8
20260508084522 36 146 0.0 1.0 0.00 0.00 0.00 60 1009.8
20260508083019 36 140 0.0 1.0 0.00 0.00 0.00 60 1009.8
20260508081517 37 138 0.0 0.0 0.00 0.00 0.00 59 1009.8
20260508080014 38 152 0.0 0.0 0.00 0.00 0.00 58 1009.8
20260508074518 38 152 0.0 1.0 0.00 0.00 0.00 58 1009.8
20260508073013 38 153 0.0 2.0 0.00 0.00 0.00 58 1009.8
20260508071512 39 146 0.0 0.0 0.00 0.00 0.00 59 1009.8
20260508070011 39 146 0.0 0.0 0.00 0.00 0.00 58 1009.6
20260508064534 39 147 0.0 0.0 0.00 0.00 0.00 57 1009.8
20260508063012 39 147 0.0 0.0 0.00 0.00 0.00 58 1010.0
20260508061508 39 147 0.0 0.0 0.00 0.00 0.00 57 1009.9
20260508060007 39 143 0.0 0.0 0.00 0.00 0.00 56 1009.9
20260508054507 40 144 0.0 0.0 0.00 0.00 0.00 56 1009.9
20260508053005 40 134 0.0 0.0 0.00 0.00 0.00 56 1010.1
20260508051509 39 138 0.0 0.0 0.00 0.00 0.00 56 1010.1
20260508050003 39 129 0.0 0.0 0.00 0.00 0.00 56 1010.2
20260508044502 39 133 0.0 0.0 0.00 0.00 0.00 56 1010.2
20260508043101 39 127 0.0 0.0 0.00 0.00 0.00 56 1010.3
20260508041556 38 132 0.0 0.0 0.00 0.00 0.00 57 1010.2
20260508034554 38 62 0.0 0.0 0.00 0.00 0.00 56 1010.3
20260508033054 38 62 0.0 0.0 0.00 0.00 0.00 56 1010.4
20260508031602 38 62 0.0 0.0 0.00 0.00 0.00 56 1010.3
20260508024553 39 62 0.0 0.0 0.00 0.00 0.00 53 1010.4
20260508023051 40 62 0.0 0.0 0.00 0.00 0.00 53 1010.4
20260508021554 40 62 0.0 0.0 0.00 0.00 0.00 52 1010.4
20260508020050 40 61 0.0 0.0 0.00 0.00 0.00 50 1010.3
20260508014550 41 62 0.0 0.0 0.00 0.00 0.00 50 1010.3
20260508013048 41 60 0.0 0.0 0.00 0.00 0.00 49 1010.2
20260508011551 42 62 0.0 0.0 0.00 0.00 0.00 48 1010.0
20260508010046 43 61 0.0 0.0 0.00 0.00 0.00 47 1010.0
20260508004545 44 62 0.0 0.0 0.00 0.00 0.00 46 1010.0
20260508003045 45 62 0.0 0.0 0.00 0.00 0.00 45 1010.0
20260508001544 46 63 0.0 0.0 0.00 0.00 0.00 44 1009.8
20260508000056 46 63 0.0 0.0 0.00 0.00 0.00 44 1009.7
20260507234548 47 68 0.0 0.0 0.00 0.00 0.00 43 1009.7
20260507233043 47 61 0.0 0.0 0.00 0.00 0.00 43 1009.7
20260507231545 47 62 0.0 1.0 0.00 0.00 0.00 42 1009.7
20260507230041 48 56 0.0 0.0 0.00 0.00 0.00 41 1009.7
20260507224540 49 54 0.0 0.0 0.00 0.00 0.00 42 1009.8
20260507223040 50 43 0.0 1.0 0.00 0.00 0.00 40 1009.8
20260507221536 49 60 0.0 1.0 0.00 0.00 0.00 42 1009.8
20260507220035 48 63 0.0 1.0 0.00 0.00 0.00 42 1009.9
20260507214534 48 44 0.0 4.0 0.00 0.00 0.00 42 1009.9
20260507213039 48 55 0.0 1.0 0.00 0.00 0.00 42 1009.9
20260507211542 47 60 0.0 1.0 0.00 0.00 0.00 44 1009.9
20260507210033 46 57 0.0 4.0 0.00 0.00 0.00 43 1010.0
20260507204531 46 75 0.0 2.0 0.00 0.00 0.00 44 1010.1
20260507203029 46 52 1.0 6.0 0.00 0.00 0.00 45 1010.1
20260507201527 46 44 3.0 6.0 0.00 0.00 0.00 44 1010.2
20260507200028 45 26 0.0 3.0 0.00 0.00 0.00 46 1010.3
20260507194526 45 26 2.0 4.0 0.00 0.00 0.00 45 1010.4
20260507193026 45 20 3.0 5.0 0.00 0.00 0.00 46 1010.4
20260507191527 46 14 0.0 4.0 0.00 0.00 0.00 45 1010.6
20260507190024 46 25 2.0 7.0 0.00 0.00 0.00 43 1010.7
20260507184521 45 18 3.0 8.0 0.00 0.00 0.00 43 1010.7
20260507183021 46 15 3.0 6.0 0.00 0.00 0.00 41 1010.7
20260507181520 48 346 0.0 2.0 0.00 0.00 0.00 40 1010.8
20260507180018 48 349 0.0 3.0 0.00 0.00 0.00 38 1010.9
20260507174537 47 331 1.0 3.0 0.00 0.00 0.00 40 1010.9
20260507173017 48 354 0.0 1.0 0.00 0.00 0.00 40 1011.1
20260507171511 47 13 0.0 2.0 0.00 0.00 0.00 41 1011.3
20260507170011 47 345 0.0 2.0 0.00 0.00 0.00 43 1011.5
20260507164509 47 353 0.0 3.0 0.00 0.00 0.00 43 1011.7
20260507163007 47 330 0.0 2.0 0.00 0.00 0.00 46 1011.8
20260507161505 45 6 0.0 4.0 0.00 0.00 0.00 48 1012.0
20260507160008 45 330 0.0 2.0 0.00 0.00 0.00 48 1012.1
20260507154505 45 14 1.0 3.0 0.00 0.00 0.00 46 1012.1
20260507153003 44 356 0.0 3.0 0.00 0.00 0.00 45 1012.1
20260507151502 44 22 0.0 4.0 0.00 0.00 0.00 46 1012.1
20260507150002 44 15 0.0 3.0 0.00 0.00 0.00 48 1012.1
20260507144501 44 19 1.0 5.0 0.00 0.00 0.00 49 1012.0
20260507143119 45 13 1.0 5.0 0.00 0.00 0.00 50 1011.9
20260507141628 45 318 0.0 2.0 0.00 0.00 0.00 44 1011.8
20260507140112 45 321 0.0 3.0 0.00 0.00 0.00 42 1011.9
20260507134607 45 328 0.0 1.0 0.00 0.00 0.00 43 1012.0
20260507133103 45 347 0.0 1.0 0.00 0.00 0.00 43 1012.0
20260507131617 44 10 0.0 0.0 0.00 0.00 0.00 42 1012.0